Kalamazoo, MI

11:16 AM EDT on July 28, 2017 (GMT -0400)
Kalamazoo-Battle Creek International

Weather History for KAZO - October, 2012

Change the Weather History Date:

Sunday, October 21, 2012

  Actual Average Record
Temperature  
Mean Temperature 50 °F 49 °F  
Max Temperature 61 °F 59 °F 86 °F (1953)
Min Temperature 38 °F 40 °F 23 °F (1952)
Degree Days  
Heating Degree Days 15 16  
Month to date heating degree days 307 270  
Since 1 July heating degree days 462 419  
Cooling Degree Days 0 0  
Month to date cooling degree days 0 7  
Year to date cooling degree days 1048 674  
Moisture  
Dew Point 43 °F    
Average Humidity 76    
Maximum Humidity 100    
Minimum Humidity 51    
Precipitation  
Precipitation 0.00 in 0.11 in 1.27 in (1984)
Month to date precipitation 3.69 2.26  
Year to date precipitation 24.22 29.67  
Sea Level Pressure  
Sea Level Pressure 30.04 in    
Wind  
Wind Speed 5 mph (South)    
Max Wind Speed 14 mph    
Max Gust Speed 17 mph    
Visibility 8 miles    
Events      
T = Trace of Precipitation, MM = Missing Value Source: NWS Daily Summary

Daily Weather History Graph

Daily Weather History Graph

Search for Another Location

Airport or City:

Trip Planner

Search our weather history database for the weather conditions in past years. The results will help you decide how hot, cold, wet, or windy it might be!

Date:

Astronomy

Oct. 21, 2012 Rise Set
Actual Time 8:02 AM EDT 6:50 PM EDT
Civil Twilight 7:33 AM EDT 7:18 PM EDT
Nautical Twilight 7:01 AM EDT 7:51 PM EDT
Astronomical Twilight 6:28 AM EDT 8:23 PM EDT
Moon 2:25 PM EDT (10/21) No Moon Set
Length of Visible Light 11h 44m
Length of Day
10h 47m
Waxing Crescent, 45% of the Moon is Illuminated
Oct 21
Waxing Crescent
Oct 21
First Quarter
Oct 29
Full
Nov 6
Last Quarter
Nov 13
New

Hourly Weather History & Observations

Time (EDT) Temp. Windchill Dew Point Humidity Pressure Visibility Wind Dir Wind Speed Gust Speed Precip Events Conditions
12:53 AM 41.0 °F 39.0 °F 41.0 °F 100% 29.95 in 4.0 mi SSW 3.5 mph - N/A   Mostly Cloudy
1:32 AM 42.8 °F - 41.0 °F 93% 29.95 in 1.8 mi Calm Calm - N/A   Partly Cloudy
1:53 AM 41.0 °F - 39.9 °F 96% 29.97 in 1.5 mi Calm Calm - N/A   Mostly Cloudy
2:06 AM 42.8 °F - 41.0 °F 93% 29.96 in 2.5 mi Calm Calm - N/A   Overcast
2:13 AM 42.8 °F 41.1 °F 42.8 °F 100% 29.96 in 6.0 mi SSW 3.5 mph - N/A   Overcast
2:53 AM 44.1 °F 40.8 °F 42.1 °F 93% 29.99 in 9.0 mi SW 5.8 mph - N/A   Mostly Cloudy
3:53 AM 46.0 °F 43.1 °F 43.0 °F 89% 30.01 in 10.0 mi WSW 5.8 mph - N/A   Overcast
4:53 AM 44.1 °F 41.5 °F 42.1 °F 93% 30.02 in 10.0 mi SW 4.6 mph - N/A   Partly Cloudy
5:53 AM 42.1 °F 39.2 °F 39.9 °F 92% 30.04 in 10.0 mi SW 4.6 mph - N/A   Clear
6:53 AM 41.0 °F 39.0 °F 39.0 °F 93% 30.05 in 8.0 mi SSW 3.5 mph - N/A   Clear
7:53 AM 39.9 °F 37.8 °F 39.0 °F 97% 30.06 in 8.0 mi South 3.5 mph - N/A   Clear
8:53 AM 42.1 °F 39.2 °F 39.9 °F 92% 30.09 in 7.0 mi South 4.6 mph - N/A   Clear
9:53 AM 46.0 °F 44.8 °F 43.0 °F 89% 30.10 in 8.0 mi South 3.5 mph - N/A   Clear
10:53 AM 51.1 °F - 44.1 °F 77% 30.11 in 10.0 mi South 5.8 mph - N/A   Clear
11:53 AM 55.0 °F - 43.0 °F 64% 30.11 in 10.0 mi South 10.4 mph - N/A   Clear
12:53 PM 57.0 °F - 43.0 °F 59% 30.09 in 10.0 mi South 10.4 mph - N/A   Clear
1:53 PM 57.9 °F - 44.1 °F 60% 30.09 in 10.0 mi South 10.4 mph - N/A   Clear
2:53 PM 59.0 °F - 43.0 °F 55% 30.07 in 10.0 mi South 9.2 mph - N/A   Clear
3:53 PM 60.1 °F - 42.1 °F 51% 30.05 in 10.0 mi South 8.1 mph - N/A   Clear
4:53 PM 61.0 °F - 43.0 °F 52% 30.05 in 10.0 mi South 5.8 mph - N/A   Clear
5:53 PM 60.1 °F - 46.0 °F 60% 30.05 in 10.0 mi South 5.8 mph - N/A   Clear
6:53 PM 57.9 °F - 45.0 °F 62% 30.06 in 10.0 mi Calm Calm - N/A   Clear
7:53 PM 54.0 °F - 45.0 °F 72% 30.07 in 10.0 mi SE 3.5 mph - N/A   Clear
8:53 PM 48.9 °F - 45.0 °F 86% 30.07 in 10.0 mi SE 3.5 mph - N/A   Clear
9:53 PM 51.1 °F - 45.0 °F 80% 30.07 in 10.0 mi SE 3.5 mph - N/A   Clear
10:53 PM 51.1 °F - 45.0 °F 80% 30.07 in 10.0 mi SSE 3.5 mph - N/A   Clear
11:53 PM 50.0 °F - 45.0 °F 83% 30.07 in 10.0 mi SSE 3.5 mph - N/A   Clear